AIC4217 VABB-OMDB

Flight info

Callsign AIC4217
Flight time 2h 25m
Altitude 40000
Route RAXET2A SAKUN V2 SUGID DCT VUSET A454 PASOV B540 KUPMA/N0455F240 B540 MIVEK P574 IMPED
Aircraft B77L/H-SDE1E2E3FGHIJ2J3J4J5M1RWXY/LB1D1

Departure

Time 2026-05-06 10:38
Airport Chhatrapati Shivaji Maharaj International Airport (VABB)

Arrival

Time 2026-05-06 13:04
Airport Dubai International Airport (OMDB)
Time Latitude Longitude Altitude Speed Heading
2026-05-06 09:45 19.09313 72.87145 54 ft 0 kts 359°
2026-05-06 10:26 19.09308 72.87145 54 ft 2 kts 360°
2026-05-06 10:26 19.09291 72.87145 48 ft 2 kts
2026-05-06 10:26 19.09275 72.87142 49 ft 2 kts 12°
2026-05-06 10:26 19.09259 72.87138 48 ft 2 kts 25°
2026-05-06 10:27 19.09245 72.87129 46 ft 2 kts 46°
2026-05-06 10:27 19.09236 72.87115 46 ft 2 kts 73°
2026-05-06 10:27 19.09234 72.87100 46 ft 1 kts 87°
2026-05-06 10:27 19.09233 72.87097 46 ft 0 kts 88°
2026-05-06 10:33 19.09234 72.87145 49 ft 16 kts 89°
2026-05-06 10:33 19.09229 72.87244 51 ft 10 kts 125°
2026-05-06 10:34 19.09160 72.87264 49 ft 11 kts 179°
2026-05-06 10:34 19.09081 72.87265 49 ft 12 kts 173°
2026-05-06 10:34 19.09051 72.87339 50 ft 12 kts 88°
2026-05-06 10:34 19.09052 72.87436 49 ft 14 kts 90°
2026-05-06 10:35 19.09052 72.87485 49 ft 3 kts 90°
2026-05-06 10:35 19.09052 72.87514 49 ft 5 kts 89°
2026-05-06 10:35 19.09053 72.87564 48 ft 9 kts 89°
2026-05-06 10:35 19.09054 72.87634 48 ft 10 kts 89°
2026-05-06 10:36 19.09056 72.87715 48 ft 12 kts 89°
2026-05-06 10:36 19.09056 72.87755 48 ft 5 kts 89°
2026-05-06 10:36 19.09049 72.87794 49 ft 6 kts 133°
2026-05-06 10:36 19.09002 72.87806 49 ft 8 kts 178°
2026-05-06 10:37 19.08942 72.87808 48 ft 9 kts 179°
2026-05-06 10:37 19.08895 72.87765 49 ft 10 kts 250°
2026-05-06 10:37 19.08885 72.87689 47 ft 11 kts 268°
2026-05-06 10:37 19.08883 72.87607 46 ft 12 kts 269°
2026-05-06 10:38 19.08882 72.87421 49 ft 44 kts 270°
2026-05-06 10:38 19.08875 72.86654 69 ft 164 kts 274°
2026-05-06 10:38 19.08884 72.85770 625 ft 191 kts 275°
2026-05-06 10:38 19.08925 72.83762 1903 ft 214 kts 274°
2026-05-06 10:39 19.08902 72.82213 2970 ft 221 kts 270°
2026-05-06 10:39 19.08846 72.80436 3380 ft 262 kts 270°
2026-05-06 10:39 19.08791 72.78430 4267 ft 278 kts 270°
2026-05-06 10:39 19.08741 72.76390 5414 ft 283 kts 270°
2026-05-06 10:40 19.08715 72.74320 6761 ft 280 kts 272°
2026-05-06 10:40 19.08874 72.72260 7968 ft 283 kts 276°
2026-05-06 10:40 19.09119 72.70188 9179 ft 286 kts 275°
2026-05-06 10:40 19.09378 72.68094 10312 ft 291 kts 275°
2026-05-06 10:41 19.09642 72.65902 10991 ft 314 kts 276°
2026-05-06 10:41 19.09923 72.63482 11259 ft 350 kts 276°
2026-05-06 10:41 19.10226 72.60811 11601 ft 379 kts 276°
2026-05-06 10:41 19.10535 72.58036 12419 ft 390 kts 277°
2026-05-06 10:42 19.10850 72.55171 13522 ft 394 kts 278°
2026-05-06 10:42 19.11163 72.52284 14512 ft 398 kts 278°
2026-05-06 10:42 19.11479 72.49355 15375 ft 405 kts 278°
2026-05-06 10:42 19.11799 72.46374 16215 ft 412 kts 277°
2026-05-06 10:43 19.12123 72.43343 17029 ft 418 kts 277°
2026-05-06 10:43 19.12451 72.40263 17848 ft 424 kts 277°
2026-05-06 10:43 19.12782 72.37143 18600 ft 429 kts 277°
2026-05-06 10:44 19.13448 72.30850 20188 ft 433 kts 277°
2026-05-06 10:44 19.13779 72.27717 20902 ft 436 kts 277°
2026-05-06 10:44 19.14117 72.24518 21584 ft 440 kts 277°
2026-05-06 10:44 19.14458 72.21284 22243 ft 444 kts 277°
2026-05-06 10:45 19.14801 72.18027 22916 ft 448 kts 277°
2026-05-06 10:45 19.15146 72.14742 23542 ft 451 kts 277°
2026-05-06 10:45 19.15499 72.11441 24058 ft 452 kts 279°
2026-05-06 10:45 19.16250 72.08208 24456 ft 456 kts 294°
2026-05-06 10:46 19.17723 72.05254 24791 ft 457 kts 300°
2026-05-06 10:46 19.19297 72.02313 25200 ft 462 kts 300°
2026-05-06 10:46 19.20843 71.99379 25786 ft 462 kts 299°
2026-05-06 10:46 19.22386 71.96402 26420 ft 462 kts 299°
2026-05-06 10:47 19.23918 71.93405 27032 ft 463 kts 298°
2026-05-06 10:47 19.25445 71.90387 27490 ft 467 kts 298°
2026-05-06 10:47 19.26983 71.87333 27862 ft 473 kts 298°
2026-05-06 10:47 19.28536 71.84242 28280 ft 478 kts 298°
2026-05-06 10:48 19.30097 71.81130 28738 ft 480 kts 298°
2026-05-06 10:48 19.31666 71.78002 29198 ft 483 kts 298°
2026-05-06 10:48 19.32709 71.75923 29494 ft 484 kts 298°
2026-05-06 10:48 19.34811 71.71732 30000 ft 489 kts 298°
2026-05-06 10:49 19.36232 71.68452 30333 ft 492 kts 291°
2026-05-06 10:49 19.37256 71.64993 30735 ft 493 kts 285°
2026-05-06 10:49 19.37977 71.61446 31211 ft 493 kts 280°
2026-05-06 10:49 19.38359 71.57844 31717 ft 491 kts 276°
2026-05-06 10:50 19.38640 71.54242 32195 ft 491 kts 276°
2026-05-06 10:50 19.38903 71.50631 32652 ft 492 kts 275°
2026-05-06 10:50 19.39165 71.47023 33160 ft 491 kts 275°
2026-05-06 10:50 19.39430 71.43474 33700 ft 489 kts 276°
2026-05-06 10:51 19.39706 71.39890 34185 ft 488 kts 276°
2026-05-06 10:51 19.39988 71.36320 34680 ft 486 kts 276°
2026-05-06 10:51 19.40272 71.32763 35178 ft 484 kts 276°
2026-05-06 10:51 19.40558 71.29219 35676 ft 482 kts 276°
2026-05-06 10:52 19.40842 71.25690 36132 ft 480 kts 276°
2026-05-06 10:52 19.41125 71.22169 36599 ft 479 kts 275°
2026-05-06 10:52 19.41406 71.18663 37063 ft 477 kts 275°
2026-05-06 10:52 19.41685 71.15165 37525 ft 476 kts 275°
2026-05-06 10:53 19.41958 71.11726 37963 ft 474 kts 275°
2026-05-06 10:53 19.42233 71.08248 38403 ft 473 kts 275°
2026-05-06 10:53 19.42507 71.04780 38766 ft 472 kts 275°
2026-05-06 10:53 19.42780 71.01318 39098 ft 471 kts 275°
2026-05-06 10:54 19.43052 70.97862 39420 ft 471 kts 275°
2026-05-06 10:54 19.43322 70.94408 39724 ft 470 kts 275°
2026-05-06 10:54 19.43594 70.90938 39775 ft 475 kts 275°
2026-05-06 10:55 19.44136 70.83987 39807 ft 471 kts 275°
2026-05-06 10:55 19.44664 70.77164 39810 ft 466 kts 275°
2026-05-06 10:56 19.45191 70.70339 39817 ft 464 kts 275°
2026-05-06 10:56 19.45714 70.63524 39818 ft 464 kts 275°
2026-05-06 10:57 19.46236 70.56706 39822 ft 465 kts 275°
2026-05-06 10:57 19.46752 70.49921 39819 ft 466 kts 275°
2026-05-06 10:58 19.47270 70.43069 39824 ft 467 kts 275°
2026-05-06 10:58 19.47788 70.36192 39825 ft 469 kts 275°
2026-05-06 10:59 19.48304 70.29298 39825 ft 470 kts 275°
2026-05-06 10:59 19.48815 70.22435 39823 ft 471 kts 275°
2026-05-06 11:00 19.49328 70.15509 39825 ft 471 kts 275°
2026-05-06 11:00 19.49839 70.08583 39828 ft 472 kts 275°
2026-05-06 11:01 19.50348 70.01650 39827 ft 472 kts 275°
2026-05-06 11:01 19.50850 69.94765 39825 ft 472 kts 275°
2026-05-06 11:02 19.51353 69.87835 39823 ft 471 kts 275°
2026-05-06 11:02 19.51853 69.80907 39822 ft 471 kts 275°
2026-05-06 11:03 19.52267 69.75151 39827 ft 471 kts 275°
2026-05-06 11:03 19.52841 69.67108 39826 ft 471 kts 275°
2026-05-06 11:04 19.53333 69.60190 39825 ft 471 kts 275°
2026-05-06 11:04 19.53739 69.54441 39823 ft 471 kts 275°
2026-05-06 11:05 19.54226 69.47520 39823 ft 471 kts 275°
2026-05-06 11:05 19.54713 69.40601 39825 ft 471 kts 276°
2026-05-06 11:06 19.56355 69.32752 39834 ft 470 kts 289°
2026-05-06 11:06 19.59011 69.26433 39837 ft 469 kts 296°
2026-05-06 11:07 19.61473 69.21302 39832 ft 469 kts 297°
2026-05-06 11:07 19.64437 69.15132 39825 ft 470 kts 297°
2026-05-06 11:08 19.67372 69.08940 39831 ft 470 kts 296°
2026-05-06 11:08 19.70288 69.02738 39830 ft 470 kts 296°
2026-05-06 11:09 19.73178 68.96569 39825 ft 470 kts 296°
2026-05-06 11:09 19.76088 68.90355 39828 ft 470 kts 296°
2026-05-06 11:10 19.78999 68.84133 39825 ft 470 kts 296°
2026-05-06 11:10 19.81909 68.77909 39829 ft 471 kts 296°
2026-05-06 11:11 19.84817 68.71682 39835 ft 470 kts 296°
2026-05-06 11:11 19.87700 68.65499 39828 ft 470 kts 296°
2026-05-06 11:12 19.90599 68.59277 39832 ft 470 kts 296°
2026-05-06 11:12 19.93494 68.53057 39831 ft 469 kts 296°
2026-05-06 11:13 19.96384 68.46841 39829 ft 469 kts 296°
2026-05-06 11:13 19.99252 68.40664 39831 ft 469 kts 296°
2026-05-06 11:14 20.02139 68.34440 39831 ft 469 kts 296°
2026-05-06 11:14 20.05025 68.28212 39830 ft 469 kts 296°
2026-05-06 11:15 20.07909 68.21979 39834 ft 469 kts 296°
2026-05-06 11:15 20.10769 68.15794 39833 ft 469 kts 296°
2026-05-06 11:16 20.13645 68.09565 39831 ft 469 kts 296°
2026-05-06 11:16 20.16517 68.03337 39828 ft 468 kts 296°
2026-05-06 11:17 20.19385 67.97113 39830 ft 468 kts 296°
2026-05-06 11:17 20.22251 67.90886 39831 ft 468 kts 296°
2026-05-06 11:18 20.25091 67.84706 39831 ft 468 kts 296°
2026-05-06 11:18 20.27950 67.78480 39833 ft 468 kts 296°
2026-05-06 11:19 20.30806 67.72253 39834 ft 468 kts 296°
2026-05-06 11:19 20.33660 67.66023 39839 ft 467 kts 295°
2026-05-06 11:20 20.36488 67.59843 39831 ft 467 kts 295°
2026-05-06 11:20 20.39329 67.53628 39828 ft 466 kts 295°
2026-05-06 11:21 20.42164 67.47417 39828 ft 466 kts 295°
2026-05-06 11:21 20.44997 67.41205 39831 ft 466 kts 295°
2026-05-06 11:22 20.47812 67.35026 39830 ft 466 kts 295°
2026-05-06 11:22 20.50643 67.28804 39830 ft 467 kts 295°
2026-05-06 11:23 20.53474 67.22573 39831 ft 467 kts 295°
2026-05-06 11:23 20.56306 67.16335 39831 ft 467 kts 295°
2026-05-06 11:24 20.59121 67.10126 39831 ft 468 kts 295°
2026-05-06 11:24 20.61954 67.03871 39831 ft 469 kts 295°
2026-05-06 11:25 20.64791 66.97600 39830 ft 469 kts 295°
2026-05-06 11:25 20.67626 66.91324 39830 ft 469 kts 295°
2026-05-06 11:26 20.70461 66.85042 39828 ft 470 kts 295°
2026-05-06 11:26 20.73276 66.78798 39831 ft 470 kts 295°
2026-05-06 11:27 20.76111 66.72501 39830 ft 470 kts 295°
2026-05-06 11:27 20.78944 66.66201 39838 ft 470 kts 295°
2026-05-06 11:28 20.81774 66.59901 39834 ft 470 kts 295°
2026-05-06 11:28 20.84582 66.53642 39825 ft 470 kts 295°
2026-05-06 11:29 20.87402 66.47348 39831 ft 469 kts 295°
2026-05-06 11:29 20.90218 66.41058 39829 ft 469 kts 295°
2026-05-06 11:30 20.93030 66.34767 39826 ft 469 kts 295°
2026-05-06 11:30 20.95837 66.28480 39831 ft 468 kts 295°
2026-05-06 11:31 20.98623 66.22233 39828 ft 468 kts 295°
2026-05-06 11:31 21.01427 66.15938 39831 ft 469 kts 295°
2026-05-06 11:32 21.04230 66.09637 39833 ft 469 kts 295°
2026-05-06 11:32 21.07031 66.03335 39830 ft 469 kts 295°
2026-05-06 11:33 21.09811 65.97072 39826 ft 469 kts 295°
2026-05-06 11:33 21.12606 65.90765 39827 ft 469 kts 295°
2026-05-06 11:34 21.15401 65.84452 39828 ft 469 kts 295°
2026-05-06 11:34 21.18193 65.78140 39827 ft 469 kts 295°
2026-05-06 11:35 21.20965 65.71864 39826 ft 469 kts 295°
2026-05-06 11:35 21.23754 65.65541 39828 ft 469 kts 295°
2026-05-06 11:36 21.26541 65.59217 39832 ft 469 kts 295°
2026-05-06 11:36 21.29324 65.52892 39830 ft 469 kts 295°
2026-05-06 11:37 21.32084 65.46613 39824 ft 468 kts 295°
2026-05-06 11:37 21.34859 65.40290 39830 ft 468 kts 295°
2026-05-06 11:38 21.37630 65.33970 39827 ft 468 kts 295°
2026-05-06 11:38 21.40379 65.27694 39824 ft 468 kts 295°
2026-05-06 11:39 21.43145 65.21369 39826 ft 468 kts 295°
2026-05-06 11:39 21.45909 65.15043 39825 ft 468 kts 295°
2026-05-06 11:40 21.48670 65.08714 39828 ft 468 kts 295°
2026-05-06 11:40 21.51409 65.02427 39825 ft 468 kts 295°
2026-05-06 11:41 21.54163 64.96100 39823 ft 468 kts 295°
2026-05-06 11:41 21.56918 64.89762 39828 ft 468 kts 295°
2026-05-06 11:42 21.59670 64.83424 39827 ft 468 kts 295°
2026-05-06 11:42 21.62403 64.77119 39828 ft 469 kts 295°
2026-05-06 11:43 21.65154 64.70768 39829 ft 469 kts 295°
2026-05-06 11:43 21.67904 64.64409 39827 ft 469 kts 295°
2026-05-06 11:44 21.72025 64.54865 39833 ft 469 kts 294°
2026-05-06 11:44 21.74748 64.48550 39831 ft 468 kts 294°
2026-05-06 11:45 21.77485 64.42192 39830 ft 468 kts 294°
2026-05-06 11:45 21.80216 64.35842 39825 ft 467 kts 294°
2026-05-06 11:46 21.82943 64.29492 39827 ft 467 kts 294°
2026-05-06 11:46 21.85649 64.23184 39831 ft 467 kts 294°
2026-05-06 11:47 21.88372 64.16829 39830 ft 467 kts 294°
2026-05-06 11:47 21.91092 64.10471 39840 ft 467 kts 294°
2026-05-06 11:48 21.93809 64.04114 39820 ft 467 kts 294°
2026-05-06 11:48 21.96504 63.97798 39826 ft 467 kts 294°
2026-05-06 11:49 21.99213 63.91441 39826 ft 467 kts 294°
2026-05-06 11:49 22.01920 63.85082 39831 ft 467 kts 294°
2026-05-06 11:50 22.04625 63.78720 39831 ft 467 kts 294°
2026-05-06 11:50 22.07308 63.72400 39826 ft 467 kts 294°
2026-05-06 11:51 22.10011 63.66025 39834 ft 467 kts 294°
2026-05-06 11:51 22.12712 63.59648 39840 ft 468 kts 294°
2026-05-06 11:52 22.15410 63.53268 39832 ft 468 kts 294°
2026-05-06 11:52 22.18105 63.46888 39831 ft 467 kts 294°
2026-05-06 11:53 22.20779 63.40550 39832 ft 467 kts 294°
2026-05-06 11:53 22.23470 63.34162 39835 ft 467 kts 294°
2026-05-06 11:54 22.26158 63.27772 39829 ft 468 kts 294°
2026-05-06 11:54 22.28844 63.21379 39832 ft 468 kts 294°
2026-05-06 11:55 22.31512 63.15022 39832 ft 468 kts 294°
2026-05-06 11:55 22.34194 63.08621 39829 ft 468 kts 294°
2026-05-06 11:56 22.36875 63.02215 39830 ft 468 kts 294°
2026-05-06 11:56 22.39552 62.95809 39830 ft 468 kts 294°
2026-05-06 11:57 22.42209 62.89446 39828 ft 468 kts 294°
2026-05-06 11:57 22.44882 62.83034 39830 ft 468 kts 294°
2026-05-06 11:58 22.47551 62.76622 39832 ft 468 kts 294°
2026-05-06 11:58 22.50220 62.70202 39831 ft 468 kts 294°
2026-05-06 11:59 22.52869 62.63822 39834 ft 468 kts 294°
2026-05-06 11:59 22.55531 62.57402 39829 ft 468 kts 294°
2026-05-06 12:00 22.57741 62.52064 39827 ft 467 kts 294°
2026-05-06 12:00 22.60841 62.44569 39832 ft 467 kts 293°
2026-05-06 12:01 22.63471 62.38200 39831 ft 467 kts 293°
2026-05-06 12:01 22.66117 62.31785 39832 ft 466 kts 293°
2026-05-06 12:02 22.68758 62.25373 39826 ft 466 kts 293°
2026-05-06 12:02 22.71397 62.18955 39829 ft 467 kts 293°
2026-05-06 12:03 22.74019 62.12573 39832 ft 467 kts 293°
2026-05-06 12:03 22.76657 62.06141 39826 ft 467 kts 293°
2026-05-06 12:04 22.79295 61.99700 39829 ft 468 kts 293°
2026-05-06 12:04 22.81934 61.93249 39826 ft 468 kts 293°
2026-05-06 12:05 22.84553 61.86839 39819 ft 469 kts 293°
2026-05-06 12:05 22.87191 61.80372 39824 ft 469 kts 293°
2026-05-06 12:06 22.89827 61.73902 39832 ft 469 kts 293°
2026-05-06 12:06 22.92463 61.67423 39834 ft 469 kts 293°
2026-05-06 12:07 22.95075 61.60992 39829 ft 469 kts 293°
2026-05-06 12:07 22.97699 61.54525 39817 ft 468 kts 293°
2026-05-06 12:08 23.00314 61.48070 39820 ft 467 kts 293°
2026-05-06 12:08 23.02923 61.41621 39821 ft 466 kts 293°
2026-05-06 12:09 23.05528 61.35175 39820 ft 466 kts 292°
2026-05-06 12:09 23.08109 61.28777 39814 ft 466 kts 292°
2026-05-06 12:10 23.10707 61.22330 39828 ft 466 kts 292°
2026-05-06 12:10 23.13301 61.15881 39823 ft 466 kts 292°
2026-05-06 12:11 23.15890 61.09436 39812 ft 465 kts 292°
2026-05-06 12:11 23.18458 61.03036 39808 ft 465 kts 292°
2026-05-06 12:12 23.21040 60.96592 39813 ft 465 kts 292°
2026-05-06 12:12 23.23619 60.90145 39813 ft 465 kts 292°
2026-05-06 12:13 23.26197 60.83692 39803 ft 465 kts 292°
2026-05-06 12:13 23.28757 60.77277 39808 ft 466 kts 292°
2026-05-06 12:14 23.31329 60.70820 39808 ft 465 kts 292°
2026-05-06 12:14 23.33900 60.64359 39806 ft 465 kts 292°
2026-05-06 12:15 23.36464 60.57905 39806 ft 464 kts 292°
2026-05-06 12:15 23.39006 60.51498 39802 ft 464 kts 292°
2026-05-06 12:16 23.41560 60.45049 39804 ft 464 kts 292°
2026-05-06 12:16 23.44111 60.38601 39799 ft 464 kts 292°
2026-05-06 12:17 23.46659 60.32149 39808 ft 464 kts 292°
2026-05-06 12:17 23.49189 60.25738 39800 ft 464 kts 292°
2026-05-06 12:18 23.51732 60.19282 39797 ft 463 kts 292°
2026-05-06 12:18 23.54269 60.12830 39799 ft 463 kts 292°
2026-05-06 12:19 23.56801 60.06384 39794 ft 463 kts 292°
2026-05-06 12:19 23.59313 59.99979 39796 ft 462 kts 292°
2026-05-06 12:20 23.61839 59.93529 39793 ft 462 kts 291°
2026-05-06 12:20 23.64362 59.87079 39797 ft 462 kts 291°
2026-05-06 12:21 23.66882 59.80626 39804 ft 462 kts 291°
2026-05-06 12:21 23.69397 59.74176 39782 ft 462 kts 291°
2026-05-06 12:22 23.71890 59.67774 39797 ft 461 kts 291°
2026-05-06 12:22 23.74393 59.61338 39785 ft 460 kts 291°
2026-05-06 12:23 23.76891 59.54904 39787 ft 460 kts 291°
2026-05-06 12:23 23.79384 59.48471 39789 ft 460 kts 291°
2026-05-06 12:24 23.81858 59.42080 39793 ft 460 kts 291°
2026-05-06 12:24 23.84347 59.35643 39809 ft 460 kts 291°
2026-05-06 12:25 23.86831 59.29207 39783 ft 459 kts 291°
2026-05-06 12:25 23.89309 59.22778 39782 ft 459 kts 291°
2026-05-06 12:26 23.91782 59.16353 39785 ft 458 kts 291°
2026-05-06 12:26 23.94076 59.09912 39779 ft 457 kts 288°
2026-05-06 12:27 23.96168 59.03351 39792 ft 457 kts 288°
2026-05-06 12:27 23.98250 58.96784 39786 ft 457 kts 288°
2026-05-06 12:28 24.00349 58.90217 39786 ft 458 kts 288°
2026-05-06 12:28 24.02438 58.83693 39779 ft 457 kts 288°
2026-05-06 12:29 24.04539 58.77127 39786 ft 457 kts 288°
2026-05-06 12:29 24.06633 58.70566 39787 ft 457 kts 288°
2026-05-06 12:30 24.08723 58.64003 39797 ft 456 kts 288°
2026-05-06 12:30 24.10796 58.57489 39793 ft 456 kts 288°
2026-05-06 12:31 24.12875 58.50931 39791 ft 456 kts 288°
2026-05-06 12:31 24.14948 58.44372 39780 ft 456 kts 288°
2026-05-06 12:32 24.17020 58.37808 39787 ft 456 kts 288°
2026-05-06 12:32 24.19087 58.31247 39782 ft 456 kts 288°
2026-05-06 12:33 24.21136 58.24734 39781 ft 455 kts 288°
2026-05-06 12:33 24.23195 58.18180 39782 ft 455 kts 288°
2026-05-06 12:34 24.25249 58.11627 39781 ft 454 kts 288°
2026-05-06 12:34 24.27299 58.05078 39784 ft 454 kts 288°
2026-05-06 12:35 24.29332 57.98572 39782 ft 454 kts 287°
2026-05-06 12:35 24.31376 57.92022 39780 ft 454 kts 287°
2026-05-06 12:36 24.33416 57.85470 39785 ft 454 kts 287°
2026-05-06 12:36 24.35453 57.78919 39776 ft 454 kts 287°
2026-05-06 12:37 24.37485 57.72372 39781 ft 453 kts 287°
2026-05-06 12:37 24.39498 57.65873 39780 ft 453 kts 287°
2026-05-06 12:38 24.41522 57.59331 39778 ft 453 kts 287°
2026-05-06 12:38 24.43541 57.52791 39777 ft 452 kts 287°
2026-05-06 12:39 24.45559 57.46254 39781 ft 452 kts 287°
2026-05-06 12:39 24.47564 57.39758 39780 ft 452 kts 287°
2026-05-06 12:40 24.48575 57.36476 39404 ft 459 kts 287°
2026-05-06 12:40 24.49596 57.33160 38640 ft 451 kts 287°
2026-05-06 12:40 24.50252 57.31033 38110 ft 437 kts 287°
2026-05-06 12:40 24.51519 57.26918 37020 ft 414 kts 287°
2026-05-06 12:41 24.52427 57.23964 36239 ft 403 kts 287°
2026-05-06 12:41 24.53315 57.21065 35478 ft 400 kts 287°
2026-05-06 12:41 24.54211 57.18138 34607 ft 410 kts 288°
2026-05-06 12:41 24.55121 57.15159 33684 ft 425 kts 288°
2026-05-06 12:42 24.56077 57.12030 32573 ft 439 kts 288°
2026-05-06 12:42 24.57058 57.08823 31496 ft 449 kts 288°
2026-05-06 12:42 24.58051 57.05573 30496 ft 457 kts 288°
2026-05-06 12:42 24.59064 57.02258 29672 ft 458 kts 287°
2026-05-06 12:43 24.60078 56.98932 28769 ft 459 kts 288°
2026-05-06 12:43 24.61090 56.95611 27959 ft 455 kts 288°
2026-05-06 12:43 24.62074 56.92386 27204 ft 432 kts 288°
2026-05-06 12:43 24.62987 56.89385 26527 ft 408 kts 288°
2026-05-06 12:44 24.63897 56.86445 26106 ft 406 kts 290°
2026-05-06 12:44 24.65004 56.83596 25933 ft 405 kts 295°
2026-05-06 12:44 24.66368 56.80897 25810 ft 402 kts 300°
2026-05-06 12:44 24.67824 56.78292 25629 ft 397 kts 300°
2026-05-06 12:45 24.69257 56.75723 24615 ft 392 kts 301°
2026-05-06 12:45 24.70672 56.73175 23243 ft 390 kts 301°
2026-05-06 12:45 24.73418 56.68199 21445 ft 358 kts 301°
2026-05-06 12:46 24.74688 56.65889 20953 ft 348 kts 301°
2026-05-06 12:46 24.75911 56.63663 20446 ft 343 kts 301°
2026-05-06 12:46 24.77161 56.61387 19962 ft 355 kts 302°
2026-05-06 12:46 24.78480 56.58984 19424 ft 378 kts 302°
2026-05-06 12:47 24.79875 56.56444 18836 ft 397 kts 302°
2026-05-06 12:47 24.81332 56.53786 18219 ft 413 kts 302°
2026-05-06 12:47 24.82819 56.51067 17510 ft 411 kts 301°
2026-05-06 12:47 24.84254 56.48444 16851 ft 387 kts 301°
2026-05-06 12:48 24.85602 56.45979 16275 ft 367 kts 301°
2026-05-06 12:48 24.86889 56.43635 15725 ft 360 kts 301°
2026-05-06 12:48 24.87962 56.41115 15280 ft 372 kts 287°
2026-05-06 12:48 24.88475 56.38291 15121 ft 381 kts 275°
2026-05-06 12:49 24.88428 56.35362 15026 ft 384 kts 265°
2026-05-06 12:49 24.88207 56.32444 14492 ft 387 kts 265°
2026-05-06 12:49 24.88022 56.29451 13670 ft 392 kts 266°
2026-05-06 12:49 24.88171 56.26422 12741 ft 399 kts 278°
2026-05-06 12:50 24.88877 56.23532 12095 ft 376 kts 289°
2026-05-06 12:50 24.89941 56.21070 11744 ft 337 kts 298°
2026-05-06 12:50 24.91046 56.18995 11558 ft 301 kts 298°
2026-05-06 12:50 24.92030 56.17105 11421 ft 269 kts 297°
2026-05-06 12:51 24.92909 56.15402 11294 ft 246 kts 297°
2026-05-06 12:51 24.93781 56.13695 11274 ft 269 kts 297°
2026-05-06 12:51 24.94730 56.11836 11160 ft 283 kts 298°
2026-05-06 12:51 24.95694 56.09949 11022 ft 281 kts 298°
2026-05-06 12:52 24.96640 56.08098 10882 ft 272 kts 298°
2026-05-06 12:52 24.97397 56.06269 10674 ft 257 kts 281°
2026-05-06 12:52 24.97602 56.04372 10459 ft 252 kts 274°
2026-05-06 12:52 24.97769 56.02431 10205 ft 258 kts 275°
2026-05-06 12:53 24.97953 56.00443 9938 ft 263 kts 275°
2026-05-06 12:53 24.98146 55.98429 9647 ft 264 kts 275°
2026-05-06 12:53 24.98338 55.96432 9325 ft 260 kts 276°
2026-05-06 12:53 24.98529 55.94471 9048 ft 255 kts 275°
2026-05-06 12:54 24.98718 55.92547 8771 ft 250 kts 275°
2026-05-06 12:54 24.98904 55.90649 8496 ft 250 kts 276°
2026-05-06 12:54 24.99093 55.88731 8240 ft 255 kts 275°
2026-05-06 12:54 24.99284 55.86789 7978 ft 261 kts 275°
2026-05-06 12:55 24.99481 55.84799 7693 ft 259 kts 276°
2026-05-06 12:55 24.99687 55.82850 7400 ft 251 kts 280°
2026-05-06 12:55 25.00343 55.81125 7125 ft 241 kts 302°
2026-05-06 12:55 25.01257 55.79576 6892 ft 243 kts 301°
2026-05-06 12:56 25.02167 55.77960 6643 ft 255 kts 301°
2026-05-06 12:56 25.03120 55.76254 6356 ft 266 kts 301°
2026-05-06 12:56 25.04097 55.74507 6052 ft 267 kts 300°
2026-05-06 12:56 25.05050 55.72800 5736 ft 263 kts 300°
2026-05-06 12:57 25.05997 55.71107 5539 ft 255 kts 300°
2026-05-06 12:57 25.06908 55.69478 5403 ft 243 kts 300°
2026-05-06 12:57 25.07775 55.67925 5241 ft 233 kts 300°
2026-05-06 12:57 25.08602 55.66444 5109 ft 222 kts 300°
2026-05-06 12:58 25.09391 55.65029 4943 ft 212 kts 300°
2026-05-06 12:58 25.10151 55.63665 4759 ft 207 kts 300°
2026-05-06 12:58 25.10901 55.62317 4557 ft 205 kts 301°
2026-05-06 12:58 25.11634 55.61002 4326 ft 203 kts 301°
2026-05-06 12:59 25.12372 55.59674 4053 ft 204 kts 301°
2026-05-06 12:59 25.13127 55.58342 3713 ft 205 kts 302°
2026-05-06 12:59 25.13885 55.57013 3425 ft 203 kts 302°
2026-05-06 12:59 25.14622 55.55697 3169 ft 200 kts 302°
2026-05-06 13:00 25.15343 55.54399 2924 ft 196 kts 302°
2026-05-06 13:00 25.16050 55.53121 2696 ft 193 kts 303°
2026-05-06 13:00 25.16739 55.51878 2463 ft 187 kts 300°
2026-05-06 13:00 25.17404 55.50681 2210 ft 179 kts 300°
2026-05-06 13:01 25.18027 55.49549 1963 ft 165 kts 302°
2026-05-06 13:01 25.18625 55.48472 1774 ft 167 kts 303°
2026-05-06 13:01 25.19223 55.47394 1586 ft 166 kts 303°
2026-05-06 13:01 25.19804 55.46339 1323 ft 156 kts 303°
2026-05-06 13:02 25.20326 55.45356 1057 ft 139 kts 303°
2026-05-06 13:02 25.20778 55.44461 807 ft 134 kts 304°
2026-05-06 13:02 25.21304 55.43590 751 ft 134 kts 308°
2026-05-06 13:02 25.21833 55.42708 718 ft 145 kts 301°
2026-05-06 13:03 25.22353 55.41745 500 ft 144 kts 301°
2026-05-06 13:03 25.22853 55.40846 328 ft 132 kts 305°
2026-05-06 13:03 25.23312 55.39995 161 ft 132 kts 302°
2026-05-06 13:03 25.23797 55.39129 40 ft 129 kts 305°
2026-05-06 13:04 25.24221 55.38380 30 ft 97 kts 299°
2026-05-06 13:04 25.24481 55.37881 29 ft 53 kts 301°
2026-05-06 13:04 25.24582 55.37678 26 ft 22 kts 290°
2026-05-06 13:04 25.24611 55.37512 27 ft 22 kts 274°
2026-05-06 13:05 25.24617 55.37354 31 ft 16 kts 272°
2026-05-06 13:05 25.24641 55.37231 27 ft 17 kts 293°
2026-05-06 13:05 25.24702 55.37124 26 ft 17 kts 304°
2026-05-06 13:05 25.24763 55.37015 26 ft 17 kts 302°
2026-05-06 13:06 25.24824 55.36906 26 ft 17 kts 299°
2026-05-06 13:06 25.24863 55.36785 31 ft 17 kts 281°
2026-05-06 13:06 25.24898 55.36659 30 ft 17 kts 297°
2026-05-06 13:06 25.24948 55.36558 31 ft 0 kts 285°
2026-05-06 13:07 25.24947 55.36551 30 ft 2 kts 264°
2026-05-06 13:07 25.24936 55.36533 31 ft 7 kts 231°
2026-05-06 13:07 25.24867 55.36482 29 ft 10 kts 211°
2026-05-06 13:07 25.24830 55.36457 29 ft 1 kts 212°
2026-05-06 13:08 25.24809 55.36443 29 ft 4 kts 212°
2026-05-06 13:08 25.24808 55.36442 29 ft 0 kts 212°